Voltar ao catálogo

STARLINK-37223

AtivoComunicaçõesSSO
NORAD 68387·PAYLOAD·🇺🇸 United States

Lançado Mar 26, 2026 de Vandenberg Space Force Base

Loading…

Próximas Passagens (próximas 24 horas)

TLE

AtualizadoSource: CelesTrak SupGP

Época: Sep 15, 2026, 04:17 UTC

1 68387C 26063H   26258.17895833  .00014472  00000+0  44936-3 0  2580
2 68387  97.2858  39.1159 0001052  80.3659 266.9719 15.33424243    12

Acompanhe STARLINK-37223 em tempo real com AllMySat

Download on the App Store